LUCH-5A

Last updated on Sun Apr 12 2026 00:02:52 GMT+0000 (Coordinated Universal Time)

1 37951U 11074B 26101.36560863 -.00000042 00000+0 00000+0 0 9990 2 37951 8.5839 74.7751 0002935 291.3927 131.9525 1.00271788 52381
UTC large
Height (km)
Speed (km/s)
/
Latitude / Longitude
Inclination (degrees)
Orbital Period (minutes)
Azimuth
Elevation
Range (km)
Doppler Factor

Next 0 passes for location: London (51.5072 / 0.1276)

Sorry there are no passes over London.
LUCH-5A